Hourly Data Report for December 05, 2021

TORONTO CITY
ONTARIO
Current Station Operator: ECCC - MSC

43°40'00.000" N
79°24'00.000" W
112.50 m
6158355
71508
XTO

Download Data

Hourly Data (December 2021)
Hourly Data Report for December 5, 2021
TIME
LST
Temp Definition
°C
Dew Point Definition
°C
Rel Hum Definition
%
Precip. Amount Definition
mm

Wind Dir Definition
10's deg

Wind Spd Definition
km/h
Visibility Definition
km
Stn Press Definition
kPa
Hmdx Definition


Wind Chill Definition


Weather Definition


00:00 1.7 -5.7 58 0.0       100.86     LegendNANA
01:00 1.7 -6.1 56 0.0       100.92     LegendNANA
02:00 1.6 -6.1 56 0.0       100.99     LegendNANA
03:00 0.9 -5.8 61 0.0       101.05     LegendNANA
04:00 0.3 -5.9 63 0.0       101.04     LegendNANA
05:00 -0.2 -5.8 66 0.0       101.11     LegendNANA
06:00 0.4 -5.3 66 0.0       101.16     LegendNANA
07:00 0.4 -5.4 65 0.0       101.19     LegendNANA
08:00 0.5 -5.4 65 0.0       101.22     LegendNANA
09:00 1.1 -5.7 60 0.0       101.24     LegendNANA
10:00 1.6 -5.7 59 0.0       101.28     LegendNANA
11:00 2.3 -5.9 55 0.0       101.26     LegendNANA
12:00 2.4 -6.6 51 0.0       101.10     LegendNANA
13:00 2.3 -5.2 58 0.0       100.99     LegendNANA
14:00 1.5 -3.6 69 0.0       100.85     LegendNANA
15:00 0.7 -1.1 88 0.3       100.82     LegendNANA
16:00 1.3 -2.0 79 0.0       100.66     LegendNANA
17:00 1.7 -1.7 78 0.0       100.40     LegendNANA
18:00 2.3 -1.6 76 0.0       100.28     LegendNANA
19:00 1.5 -0.5 87 0.4       100.09     LegendNANA
20:00 2.0 0.7 91 1.4       99.79     LegendNANA
21:00 3.5 1.4 86 1.4       99.70     LegendNANA
22:00 3.6 2.1 90 5.0       99.44     LegendNANA
23:00 3.9 2.4 90 2.5       99.37     LegendNANA

Notes on Data Quality.

Legend

  • E = Estimated
  • M = Missing
  • NA = Not Available*
  • [empty] = Indicates an unobserved value
Date modified: